Location: Devore Heights
(34.2372°N, 117.4156°W)
Time: 19:28:42
(UTC+00:00)

Vanguard 1 Rocket - Pass Details

Date: 15 September 2024
Orbit: 650 x 4218 km, 34.3° (Epoch: 04 October)

Event Time Altitude Azimuth Distance (km) Brightness Sun altitude
Rises 07:42:02 0° 175° (S) 4,323 - -53.0°
Reaches altitude 10° 07:46:36 10° 151° (SSE) 3,943 - -53.0°
Maximum altitude 07:51:40 14° 122° (ESE) 4,241 - -52.9°
Exits shadow 07:56:37 12° 101° (E) 5,047 11.1 -52.9°
Drops below altitude 10° 07:58:11 10° 95° (E) 5,361 11.3 -52.8°
Sets 08:06:48 0° 76° (ENE) 7,246 12.2 -52.6°
